Юрома

Россия / Архангельская область     65°08′43″N   45°34′34″E
темп.,
°C
ветер,
м/с
пор.,
м/с
влажн.,
%
обл.,
%
осадки,
мм/ч
давл.,
гПа
погр.,
м
8 марта, пн
пн800:00−26св259848 0.0 1009114
03:00−28св259736 0.0 1010118
06:00−30ссв269833 0.0 1010123
09:00−28ссв369753 0.0 1011246
12:00−26ссв369596 0.0 1012329
15:00−26ссв379498 0.0 1013384
18:00−30с379681 0.0 1015182
21:00−33с239749 0.0 101768
9 марта, вт
вт900:00−34ссв229719 0.0 101822
03:00−35ссз22989 0.0 101919
06:00−35ссз229913 0.0 101919
09:00−30з119710 0.0 102078
12:00−25з239458 0.0 1020257
15:00−22зюз259779 0.2 1019284
18:00−23юз2298100 0.1 101937
21:00−22зюз269898 0.1 1019154
10 марта, ср
ср1000:00−25зюз239987 0.0 101945
03:00−25з2210092 0.0 101928
06:00−23з359797 0.0 101890
09:00−16з389798 0.0 1017220
12:00−8зсз51193100 0.1 1016640
15:00−7сз51291100 0.4 1016757
18:00−8сз51291100 0.1 1016631
21:00−12сз51288100 0.1 1016400
11 марта, чт
чт1100:00−16зсз3118977 0.0 1017272
03:00−18з4118964 0.0 1017268
06:00−18з411908 0.0 1017303
09:00−15з411823 0.0 1015505
12:00−12з510800 0.0 1014725
15:00−11з511836 0.0 1014918
18:00−13з4138356 0.0 1013605
21:00−12з5138273 0.0 1012719
12 марта, пт
пт1200:00−12зюз51382100 0.0 1012660
03:00−13зюз51387100 0.0 1011631
06:00−13зюз51388100 0.0 1010614
09:00−12зюз51390100 0.0 1009621
12:00−10зюз51191100 0.1 1009622
15:00−9зюз51291100 0.1 1009650
18:00−9зюз51289100 0.1 1008638
21:00−10зюз51391100 0.1 1009539